sat.trackr.live / text

‹ back to catalog

STARLINK-30710

NORAD 57938 · 2023-148D

PAYLOAD ACTIVE UNKNOWN

§ Identity

Operator
Country
US
Launch date
2023-09-25
Launch site
AFWTR
Launch vehicle
Mass (kg)
RCS (m²)

Purposes: comms

External: N2YO · Heavens-Above · Gunter

§ Orbital elements

Epoch: 2026-05-25T01:28:13.243296Z

Period
93.85 min
Inclination
53.1609°
Eccentricity
0.0001201
Mean motion
15.34390234 rev/d
Perigee alt
461.9 km
Apogee alt
463.6 km
Semi-major
6,840.9 km
B*
3.9613e-5
RAAN
19.0782°
Arg perigee
84.6104°
Mean anomaly
275.5035°
Rev number
15,025

§ Raw data

STARLINK-307101 57938U 23148D   26145.06126439  .00000962  00000+0  39613-4 0  99912 57938  53.1609  19.0782 0001201  84.6104 275.5035 15.34390234150256

JSON: /api/v1/satellites/57938 · /tle

For live sub-satellite position, see the globe view (requires WebGL).

§ Visibility from observer

Set your observer location to see the next 7 days of passes ≥ 10°. The values pass through the URL so the page stays shareable.

No JS? Fill the form by hand. The geolocation button needs JavaScript.